Skip Page Navigation
NASA JPL Caltech
NASA Logo - Jet Propulsion Laboratory + View the NASA Portal
+ Center for Near-Earth Object Studies
JPL Home Earth Solar System Stars & Galaxies Technology
JPL Solar System Dynamics
BODIES ORBITS EPHEMERIDES TOOLS PHYSICAL DATA DISCOVERY FAQ SITE MAP
JPL Small-Body Database Browser
Search: [ help ]  
213438 (2001 YV16)
Classification: Main-belt Asteroid          SPK-ID: 2213438
Ephemeris | Orbit Diagram | Orbital Elements | Mission Design | Physical Parameters | Discovery Circumstances | Close-Approach Data ]

[ show orbit diagram ]
Orbital Elements at Epoch 2459200.5 (2020-Dec-17.0) TDB
Reference: JPL 16 (heliocentric ecliptic J2000)
 Element Value Uncertainty (1-sigma)   Units 
e .1120403836335307 7.4298e-08  
a 2.937825237762472 2.572e-08 au
q 2.608670171075296 2.2255e-07 au
i 11.38538534786406 6.0332e-06 deg
node 284.0892875653462 3.0667e-05 deg
peri 181.3944284022011 4.2182e-05 deg
M 260.7941209868129 3.0555e-05 deg
tp 2459707.341621540792
(2022-May-07.84162154)
0.00015934 TDB
period 1839.2355933909
5.04
2.4153e-05
6.613e-08
d
yr
n .195733489115599 2.5704e-09 deg/d
Q 3.266980304449648 2.8602e-08 au
  Orbit Determination Parameters
   # obs. used (total)      402  
   data-arc span      21949 days (60.09 yr)  
   first obs. used      1960-10-22  
   last obs. used      2020-11-25  
   planetary ephem.      DE441  
   SB-pert. ephem.      SB441-N16  
   condition code      0  
   norm. resid. RMS      .61638  
   source      ORB  
   producer      Otto Matic  
   solution date      2021-Apr-13 23:42:42  

Additional Information
 Earth MOID = 1.62538 au 
 Jupiter MOID = 1.88377 au 
 T_jup = 3.235 
[ show covariance matrix ]

Ephemeris | Orbit Diagram | Orbital Elements | Mission Design | Physical Parameters | Discovery Circumstances | Close-Approach Data ]

Physical Parameter Table
Parameter Symbol Value Units Sigma Reference Notes
absolute magnitude H 15.2   n/a MPO446193  

213438 (2001 YV16)          Discovered 2001-Dec-17 by LINEAR at Socorro
Reference: 20090509/Numbers.arcLast Updated: 2009-05-11

[ show close-approach data ]
Ephemeris | Orbit Diagram | Orbital Elements | Mission Design | Physical Parameters | Discovery Circumstances | Close-Approach Data ]
ABOUT SSD CREDITS/AWARDS PRIVACY/COPYRIGHT GLOSSARY LINKS
FirstGov 2021-May-10 07:46 UT
(server date/time)  
NASA Home Page
Site Manager:   Ryan S. Park
Webmaster  Alan B. Chamberlin